Location: Musselshell
(46.5176°N, 108.0911°W)
Time: 09:17:54
(UTC+00:00)

YUBILEINY - Pass Details

Date: 07 July 2022
Orbit: 1478 x 1509 km, 82.5° (Epoch: 13 August)

Event Time Altitude Azimuth Distance (km) Brightness Sun altitude
Rises 10:34:06 0° 351° (N) 4,649 ? -7.9°
Reaches altitude 10° 10:37:02 10° 353° (N) 3,661 ? -7.5°
Maximum altitude 10:45:52 73° 79° (ENE) 1,551 ? -6.4°
Drops below altitude 10° 10:54:34 10° 164° (SSE) 3,618 ? -5.3°
Sets 10:57:26 0° 166° (SSE) 4,591 ? -4.9°
